• In Sweden
  • List of Countries
  • For 7 days
  • Water Temperature
  • Satellite Maps
  • Weather Map
  • Weather Widgets
  • user-avatar
    Login

    Hourly Weather Alaca

    Today, 19 October, Friday

    Time Temperature Precipitation Wind Pressure Humidity
    00:00 +16°C° 0 mm 0 mps 683 mmHg 59%
    01:00 +16°C° 0 mm 0 mps 683 mmHg 61%
    02:00 +15°C° 0 mm 0 mps 683 mmHg 64%
    03:00 +15°C° 0 mm 0 mps 683 mmHg 65%
    04:00 +14°C° 0 mm 0 mps 683 mmHg 65%
    05:00 +14°C° 0 mm 0 mps 683 mmHg 66%
    06:00 +15°C° 0 mm 0 mps 683 mmHg 61%
    07:00 +17°C° 0 mm 0 mps 683 mmHg 56%
    08:00 +18°C° 0 mm 0 mps 684 mmHg 50%
    09:00 +19°C° 0 mm 0 mps 684 mmHg 46%
    10:00 +23°C° 0 mm 1 mps 684 mmHg 41%
    11:00 +24°C° 0 mm 1 mps 684 mmHg 36%
    12:00 +25°C° 0 mm 1 mps 684 mmHg 34%
    13:00 +25°C° 0 mm 1 mps 684 mmHg 32%
    14:00 +26°C° 0 mm 1 mps 684 mmHg 31%
    15:00 +25°C° 0.1 mm 1 mps 683 mmHg 33%
    16:00 +24°C° 0.1 mm 1 mps 683 mmHg 36%
    17:00 +22°C° 0.1 mm 1 mps 683 mmHg 39%
    18:00 +22°C° 0.3 mm 1 mps 683 mmHg 42%
    19:00 +21°C° 0.3 mm 1 mps 683 mmHg 45%
    20:00 +20°C° 0.3 mm 1 mps 683 mmHg 48%
    21:00 +20°C° 0.2 mm 1 mps 683 mmHg 51%
    22:00 +19°C° 0.2 mm 1 mps 683 mmHg 54%
    23:00 +19°C° 0.2 mm 1 mps 683 mmHg 57%

    Tomorrow, 20 October, Saturday

    Time Temperature Precipitation Wind Pressure Humidity
    00:00 +18°C° 0 mm 1 mps 683 mmHg 60%
    01:00 +18°C° 0 mm 1 mps 682 mmHg 63%
    02:00 +16°C° 0 mm 1 mps 682 mmHg 66%
    03:00 +16°C° 0.1 mm 1 mps 682 mmHg 68%
    04:00 +15°C° 0.1 mm 1 mps 682 mmHg 71%
    05:00 +15°C° 0.1 mm 1 mps 682 mmHg 73%
    06:00 +16°C° 0.1 mm 1 mps 682 mmHg 69%
    07:00 +18°C° 0.1 mm 1 mps 683 mmHg 65%
    08:00 +19°C° 0.1 mm 1 mps 683 mmHg 61%
    09:00 +20°C° 0.1 mm 1 mps 683 mmHg 55%
    10:00 +22°C° 0.1 mm 1 mps 683 mmHg 48%
    11:00 +23°C° 0.1 mm 1 mps 683 mmHg 42%
    12:00 +24°C° 0 mm 1 mps 683 mmHg 39%
    13:00 +24°C° 0 mm 1 mps 682 mmHg 37%
    14:00 +25°C° 0 mm 1 mps 682 mmHg 34%
    15:00 +24°C° 0.2 mm 1 mps 682 mmHg 38%
    16:00 +23°C° 0.2 mm 1 mps 682 mmHg 43%
    17:00 +20°C° 0.2 mm 2 mps 681 mmHg 47%
    18:00 +20°C° 0.4 mm 2 mps 681 mmHg 53%
    19:00 +19°C° 0.4 mm 2 mps 681 mmHg 58%
    20:00 +18°C° 0.4 mm 2 mps 681 mmHg 64%
    21:00 +17°C° 0.1 mm 2 mps 681 mmHg 69%
    22:00 +17°C° 0.1 mm 2 mps 681 mmHg 73%
    23:00 +16°C° 0.1 mm 2 mps 681 mmHg 77%

    Day after tomorrow, 21 October, Sunday

    Time Temperature Precipitation Wind Pressure Humidity
    00:00 +16°C° 0.4 mm 2 mps 681 mmHg 79%
    01:00 +15°C° 0.4 mm 2 mps 681 mmHg 81%
    02:00 +15°C° 0.4 mm 2 mps 680 mmHg 82%
    03:00 +15°C° 0.5 mm 2 mps 680 mmHg 84%
    04:00 +14°C° 0.5 mm 2 mps 680 mmHg 85%
    05:00 +14°C° 0.5 mm 2 mps 680 mmHg 86%
    06:00 +15°C° 0.8 mm 2 mps 680 mmHg 83%
    07:00 +15°C° 0.8 mm 2 mps 680 mmHg 80%
    08:00 +15°C° 0.8 mm 2 mps 680 mmHg 77%
    09:00 +16°C° 1.4 mm 2 mps 680 mmHg 71%
    10:00 +17°C° 1.4 mm 2 mps 680 mmHg 65%
    11:00 +18°C° 1.4 mm 2 mps 680 mmHg 59%
    12:00 +19°C° 1.2 mm 2 mps 680 mmHg 58%
    13:00 +19°C° 1.2 mm 2 mps 680 mmHg 56%
    14:00 +19°C° 1.2 mm 2 mps 679 mmHg 54%
    15:00 +18°C° 0.7 mm 2 mps 679 mmHg 58%
    16:00 +17°C° 0.7 mm 2 mps 679 mmHg 61%
    17:00 +17°C° 0.7 mm 2 mps 679 mmHg 65%
    18:00 +16°C° 0.4 mm 2 mps 679 mmHg 69%
    19:00 +15°C° 0.4 mm 2 mps 679 mmHg 72%
    20:00 +15°C° 0.4 mm 1 mps 680 mmHg 76%
    21:00 +14°C° 0.2 mm 1 mps 680 mmHg 78%
    22:00 +14°C° 0.2 mm 1 mps 680 mmHg 81%
    23:00 +13°C° 0.2 mm 1 mps 680 mmHg 83%

    22 October, Monday

    Time Temperature Precipitation Wind Pressure Humidity
    00:00 +13°C° 0 mm 1 mps 680 mmHg 85%
    01:00 +12°C° 0 mm 1 mps 680 mmHg 86%
    02:00 +12°C° 0 mm 1 mps 680 mmHg 88%
    03:00 +12°C° 0 mm 1 mps 680 mmHg 88%
    04:00 +12°C° 0 mm 1 mps 680 mmHg 89%
    05:00 +11°C° 0 mm 1 mps 679 mmHg 90%
    06:00 +12°C° 0 mm 1 mps 680 mmHg 85%
    07:00 +13°C° 0 mm 1 mps 680 mmHg 80%
    08:00 +14°C° 0 mm 1 mps 681 mmHg 75%
    09:00 +16°C° 0 mm 1 mps 681 mmHg 67%
    10:00 +18°C° 0 mm 1 mps 681 mmHg 59%
    11:00 +20°C° 0 mm 1 mps 681 mmHg 51%
    12:00 +20°C° 0 mm 1 mps 680 mmHg 48%
    13:00 +21°C° 0 mm 1 mps 680 mmHg 44%
    14:00 +22°C° 0 mm 1 mps 680 mmHg 40%
    15:00 +21°C° 0 mm 1 mps 680 mmHg 44%
    16:00 +20°C° 0 mm 1 mps 679 mmHg 47%
    17:00 +19°C° 0 mm 1 mps 679 mmHg 50%
    18:00 +19°C° 0.1 mm 1 mps 679 mmHg 53%
    19:00 +18°C° 0.1 mm 1 mps 679 mmHg 56%
    20:00 +18°C° 0.1 mm 1 mps 680 mmHg 59%
    21:00 +16°C° 0.1 mm 1 mps 680 mmHg 61%
    22:00 +16°C° 0.1 mm 1 mps 680 mmHg 62%
    23:00 +16°C° 0.1 mm 1 mps 680 mmHg 63%

    23 October, Tuesday

    Time Temperature Precipitation Wind Pressure Humidity
    00:00 +15°C° 0.2 mm 1 mps 680 mmHg 66%
    01:00 +15°C° 0.2 mm 1 mps 679 mmHg 68%
    02:00 +14°C° 0.2 mm 1 mps 679 mmHg 70%
    03:00 +14°C° 0 mm 1 mps 679 mmHg 71%
    04:00 +14°C° 0 mm 1 mps 679 mmHg 72%
    05:00 +13°C° 0 mm 1 mps 679 mmHg 73%
    06:00 +14°C° 0 mm 1 mps 679 mmHg 69%
    07:00 +15°C° 0 mm 1 mps 680 mmHg 64%
    08:00 +16°C° 0 mm 1 mps 680 mmHg 60%
    09:00 +17°C° 0 mm 2 mps 680 mmHg 53%
    10:00 +19°C° 0 mm 3 mps 680 mmHg 47%
    11:00 +20°C° 0 mm 3 mps 680 mmHg 40%
    12:00 +21°C° 0 mm 3 mps 680 mmHg 37%
    13:00 +21°C° 0 mm 3 mps 679 mmHg 35%
    14:00 +22°C° 0 mm 4 mps 679 mmHg 32%
    15:00 +21°C° 0 mm 3 mps 679 mmHg 35%
    16:00 +20°C° 0 mm 2 mps 679 mmHg 38%
    17:00 +20°C° 0 mm 1 mps 678 mmHg 41%
    18:00 +19°C° 0 mm 1 mps 678 mmHg 42%
    19:00 +19°C° 0 mm 1 mps 678 mmHg 44%
    20:00 +19°C° 0 mm 1 mps 678 mmHg 45%
    21:00 +17°C° 0 mm 2 mps 678 mmHg 47%
    22:00 +17°C° 0 mm 2 mps 677 mmHg 49%
    23:00 +16°C° 0 mm 2 mps 677 mmHg 52%

    24 October, Wednesday

    Time Temperature Precipitation Wind Pressure Humidity
    00:00 +16°C° 0 mm 2 mps 677 mmHg 54%
    01:00 +16°C° 0 mm 3 mps 677 mmHg 57%
    02:00 +16°C° 0 mm 3 mps 676 mmHg 59%
    03:00 +14°C° 0.1 mm 3 mps 676 mmHg 61%
    04:00 +14°C° 0.1 mm 3 mps 676 mmHg 63%
    05:00 +14°C° 0.1 mm 3 mps 676 mmHg 65%
    06:00 +14°C° 0.1 mm 4 mps 676 mmHg 63%
    07:00 +15°C° 0.1 mm 5 mps 676 mmHg 60%
    08:00 +15°C° 0.1 mm 7 mps 677 mmHg 58%
    09:00 +15°C° 0.1 mm 7 mps 677 mmHg 57%
    10:00 +16°C° 0.1 mm 7 mps 677 mmHg 56%
    11:00 +16°C° 0.1 mm 6 mps 677 mmHg 55%
    12:00 +16°C° 0.1 mm 6 mps 677 mmHg 52%
    13:00 +17°C° 0.1 mm 6 mps 677 mmHg 48%
    14:00 +17°C° 0.1 mm 6 mps 677 mmHg 45%
    15:00 +16°C° 0 mm 5 mps 677 mmHg 46%
    16:00 +15°C° 0 mm 4 mps 677 mmHg 47%
    17:00 +14°C° 0 mm 3 mps 677 mmHg 49%
    18:00 +15°C° 0 mm 2 mps 677 mmHg 51%
    19:00 +14°C° 0 mm 2 mps 677 mmHg 53%
    20:00 +13°C° 0 mm 2 mps 677 mmHg 55%
    21:00 +13°C° 0 mm 2 mps 677 mmHg 56%
    22:00 +13°C° 0 mm 2 mps 677 mmHg 57%
    23:00 +12°C° 0 mm 2 mps 677 mmHg 58%
    Show more